FW0185 Weather Reports


Display with metric or nautical units.
time (UTC)temp
F
wind
direction
speed
MPH
gust
MPH
rain 1hr
in
rain 24hr
in
rain mn
in
humidity
%
barometer
mb
20211025220005 73 134 0.0 3.0 0.00 0.00 0.00 79 1006.4
20211025214642 74 194 0.0 4.0 0.00 0.00 0.00 78 1006.6
20211025213127 74 173 0.0 3.0 0.00 0.00 0.00 78 1006.7
20211025211706 74 133 1.0 4.0 0.00 0.00 0.00 76 1006.8
20211025210158 75 153 0.0 5.0 0.00 0.00 0.00 76 1007.3
20211025204627 75 191 0.0 4.0 0.00 0.00 0.00 75 1007.3
20211025203158 75 27 0.0 4.0 0.00 0.00 0.00 74 1007.5
20211025201638 75 165 1.0 5.0 0.00 0.00 0.00 73 1007.6
20211025200210 76 170 0.0 5.0 0.00 0.00 0.00 74 1007.8
20211025194649 76 146 1.0 5.0 0.00 0.00 0.00 74 1008.1
20211025193131 76 163 2.0 6.0 0.00 0.00 0.00 73 1008.2
20211025191634 76 177 0.0 5.0 0.00 0.00 0.00 75 1008.3
20211025190046 76 123 1.0 7.0 0.00 0.00 0.00 76 1008.6
20211025184608 76 72 1.0 5.0 0.00 0.00 0.00 80 1008.9
20211025183112 75 174 1.0 6.0 0.00 0.00 0.00 80 1009.4
20211025181529 75 180 1.0 6.0 0.00 0.00 0.00 82 1009.8
20211025180033 73 181 0.0 4.0 0.00 0.00 0.00 86 1010.2
20211025174538 71 103 1.0 4.0 0.00 0.00 0.00 88 1010.6
20211025173056 70 319 0.0 6.0 0.00 0.00 0.00 88 1011.3
20211025171514 70 170 1.0 4.0 0.00 0.00 0.00 88 1011.6
20211025170038 69 156 0.0 4.0 0.00 0.00 0.00 88 1011.9
20211025164511 69 174 0.0 7.0 0.00 0.00 0.00 89 1012.2
20211025163013 68 169 0.0 3.0 0.00 0.00 0.00 89 1012.7
20211025161646 66 160 0.0 1.0 0.00 0.00 0.00 89 1012.9
20211025160131 65 155 0.0 2.0 0.00 0.00 0.00 89 1013.3
20211025154632 65 82 0.0 1.0 0.00 0.00 0.00 89 1013.8
20211025153154 66 117 0.0 2.0 0.00 0.00 0.00 89 1014.2
20211025151642 67 338 2.0 4.0 0.00 0.00 0.00 88 1014.6
20211025150108 67 159 0.0 0.0 0.00 0.00 0.00 88 1014.8
20211025144603 67 159 0.0 0.0 0.00 0.00 0.00 88 1014.5
20211025143122 66 159 0.0 0.0 0.00 0.00 0.00 89 1014.5
20211025141607 65 159 0.0 1.0 0.00 0.00 0.00 89 1014.9
20211025140117 64 159 0.0 1.0 0.00 0.00 0.00 90 1015.1
20211025134547 64 159 0.0 0.0 0.00 0.00 0.00 90 1015.2
20211025133149 63 159 0.0 0.0 0.00 0.00 0.00 90 1015.3
20211025131615 63 158 0.0 1.0 0.00 0.00 0.00 90 1015.5
20211025130047 62 158 0.0 0.0 0.00 0.00 0.00 90 1015.7
20211025124550 61 158 0.0 0.0 0.00 0.00 0.00 90 1015.6
20211025123055 61 158 0.0 0.0 0.00 0.00 0.00 90 1015.8
20211025121606 60 158 0.0 0.0 0.00 0.00 0.00 90 1015.6
20211025120054 60 158 0.0 1.0 0.00 0.00 0.00 90 1015.5
20211025114608 60 158 0.0 0.0 0.00 0.00 0.00 90 1015.4
20211025113135 60 158 0.0 0.0 0.00 0.00 0.00 90 1015.4
20211025111531 60 158 0.0 0.0 0.00 0.00 0.00 90 1015.5
20211025110045 60 158 0.0 0.0 0.00 0.00 0.00 90 1015.7
20211025104555 61 158 0.0 0.0 0.00 0.00 0.00 90 1015.9
20211025103030 61 158 0.0 0.0 0.00 0.00 0.00 90 1015.9
20211025101525 61 158 0.0 0.0 0.00 0.00 0.00 89 1015.9
20211025100046 61 158 0.0 0.0 0.00 0.00 0.00 89 1016.2
20211025094603 61 158 0.0 0.0 0.00 0.00 0.00 89 1016.3
20211025093027 61 158 0.0 0.0 0.00 0.00 0.00 89 1016.3
20211025091543 61 158 0.0 0.0 0.00 0.00 0.00 89 1016.3
20211025081504 62 158 0.0 1.0 0.00 0.00 0.00 89 1016.9
20211025074713 62 158 0.0 0.0 0.00 0.00 0.00 89 1017.3
20211025073133 63 159 0.0 0.0 0.00 0.00 0.00 88 1017.4
20211025071714 63 159 0.0 2.0 0.00 0.00 0.00 88 1017.6
20211025070133 63 146 0.0 2.0 0.00 0.00 0.00 88 1017.7
20211025064726 63 9 0.0 1.0 0.00 0.00 0.00 88 1017.7
20211025063119 63 80 0.0 2.0 0.00 0.00 0.00 88 1017.8
20211025061756 63 205 0.0 1.0 0.00 0.00 0.00 88 1017.8
20211025060051 63 172 0.0 2.0 0.00 0.00 0.00 88 1017.9
20211025054628 63 136 0.0 0.0 0.00 0.00 0.00 88 1017.7
20211025053122 63 136 0.0 1.0 0.00 0.00 0.00 88 1017.8
20211025051625 64 137 0.0 1.0 0.00 0.00 0.00 88 1017.8
20211025050056 64 139 0.0 1.0 0.00 0.00 0.00 87 1017.8
20211025044610 65 145 0.0 2.0 0.00 0.00 0.00 87 1018.0
20211025043038 65 141 0.0 1.0 0.00 0.00 0.00 87 1018.2
20211025041555 65 150 0.0 1.0 0.00 0.00 0.00 86 1018.2
20211025040046 65 167 0.0 4.0 0.00 0.00 0.00 86 1018.4
20211025034540 65 160 0.0 3.0 0.00 0.00 0.00 86 1018.6
20211025033037 65 156 0.0 1.0 0.00 0.00 0.00 85 1018.8
20211025031542 65 158 0.0 2.0 0.00 0.00 0.00 84 1018.8
20211025030027 65 176 0.0 3.0 0.00 0.00 0.00 84 1018.8
20211025024530 65 165 0.0 2.0 0.00 0.00 0.00 84 1018.8
20211025023047 65 159 0.0 3.0 0.00 0.00 0.00 84 1018.7
20211025021550 65 129 0.0 3.0 0.00 0.00 0.00 83 1018.7
20211025020031 64 108 0.0 1.0 0.00 0.00 0.00 84 1018.7
20211025014526 63 138 0.0 2.0 0.00 0.00 0.00 86 1018.8
20211025013039 62 98 0.0 0.0 0.00 0.00 0.00 87 1018.7
20211025011536 61 98 0.0 1.0 0.00 0.00 0.00 87 1018.7
20211025010040 61 98 0.0 1.0 0.00 0.00 0.00 88 1018.9
20211025004525 60 98 0.0 0.0 0.00 0.00 0.00 88 1019.0
20211025001551 60 98 0.0 0.0 0.00 0.00 0.00 87 1019.1
20211025000046 61 98 0.0 0.0 0.00 0.00 0.00 87 1019.1
20211024234542 61 98 0.0 0.0 0.00 0.00 0.00 86 1019.2
20211024233019 62 98 0.0 0.0 0.00 0.00 0.00 85 1019.2
20211024231524 62 98 0.0 0.0 0.00 0.00 0.00 84 1019.2
20211024230020 63 98 0.0 0.0 0.00 0.00 0.00 83 1019.2
20211024224517 64 98 0.0 0.0 0.00 0.00 0.00 81 1019.2
20211024223031 65 98 0.0 0.0 0.00 0.00 0.00 79 1019.2
20211024221515 66 98 0.0 0.0 0.00 0.00 0.00 78 1019.1